This demonstration page uses our WeatherBlox Daily Observations layout. Learn more.

Left ArrowRight Arrow

Hourly Observations for April 28, 2022

Temp ( °F °C ) Dew Point ( °F °C ) Humidity (%) Winds ( mph kmh ) Pressure ( in mb ) Visibility ( mi km ) Precip ( " mm )
12:53 am 00:53 Mostly Cloudy 65 18.3 41 5 42 42 SSW 16 26 29.82 1010 10 16 0.00 0.00
1:53 am 01:53 Cloudy 62 16.7 40 4.4 44 44 SSW 9 15 29.83 1010 10 16 0.00 0.00
2:53 am 02:53 Mostly Cloudy 60 15.6 35 1.7 39 39 SW 13 20 29.85 1011 10 16 0.00 0.00
3:53 am 03:53 Cloudy 59 15 34 1.1 39 39 S 9 15 29.86 1011 10 16 0.00 0.00
4:53 am 04:53 Cloudy 54 12.2 39 3.9 57 57 W 7 11 29.88 1012 10 16 0.00 0.00
5:53 am 05:53 Mostly Clear 53 11.7 42 5.6 66 66 S 9 15 29.90 1012 10 16 0.00 0.00
6:53 am 06:53 Partly Cloudy 52 11.1 41 5 66 66 Calm 29.92 1013 10 16 0.00 0.00
7:53 am 07:53 Sunny 54 12.2 36 2.2 51 51 S 12 19 29.94 1014 10 16 0.00 0.00
8:53 am 08:53 Mostly Sunny 56 13.3 38 3.3 51 51 SSW 7 11 29.97 1015 10 16 0.00 0.00
9:53 am 09:53 Mostly Sunny 59 15 41 5 51 51 Calm 29.98 1015 10 16 0.00 0.00
10:53 am 10:53 Sunny 60 15.6 40 4.4 47 47 undefined N/A 29.99 1016 10 16 0.00 0.00
11:53 am 11:53 Sunny 63 17.2 41 5 45 45 VRB 5 7 29.99 1016 10 16 0.00 0.00
12:53 pm 12:53 Sunny 64 17.8 40 4.4 41 41 undefined N/A 29.98 1015 10 16 0.00 0.00
1:53 pm 13:53 Sunny 66 18.9 40 4.4 39 39 SE 8 13 29.97 1015 10 16 0.00 0.00
2:53 pm 14:53 Sunny 69 20.6 38 3.3 32 32 SSE 7 11 29.96 1015 10 16 0.00 0.00
3:53 pm 15:53 Partly Cloudy 69 20.6 33 0.6 26 26 S 12 19 29.95 1014 10 16 0.00 0.00
4:53 pm 16:53 Mostly Sunny 68 20 31 -0.6 25 25 SW 5 7 29.96 1014 10 16 0.00 0.00
5:53 pm 17:53 Mostly Sunny 70 21.1 28 -2.2 21 21 WNW 10 17 29.97 1015 10 16 0.00 0.00
6:53 pm 18:53 Sunny 67 19.4 28 -2.2 23 23 NW 10 17 29.99 1016 10 16 0.00 0.00
7:53 pm 19:53 Sunny 64 17.8 29 -1.7 27 27 W 7 11 30.00 1016 10 16 0.00 0.00
8:53 pm 20:53 Clear 61 16.1 30 -1.1 31 31 W 5 7 30.03 1017 10 16 0.00 0.00
9:53 pm 21:53 Clear 59 15 31 -0.6 35 35 Calm 30.06 1018 10 16 0.00 0.00
10:53 pm 22:53 Clear 58 14.4 31 -0.6 36 36 WNW 5 7 30.08 1019 10 16 0.00 0.00
11:53 pm 23:53 Clear 58 14.4 32 0 38 38 NW 9 15 30.09 1019 10 16 0.00 0.00

Powered by AerisWeather